Location: Carbonear
(47.7333°N, 53.2500°W)
Time: 06:08:59
(UTC+00:00)

AO-27 - Pass Details

Date: 13 December 2022
Orbit: 784 x 798 km, 98.9° (Epoch: 28 January)

Event Time Altitude Azimuth Distance (km) Brightness Sun altitude
Exits shadow 23:23:38 15° 335° (NNW) 2,079 10.1 -36.3°
Drops below altitude 10° 23:24:26 10° 338° (NNW) 2,381 10.4 -36.4°
Sets 23:26:50 0° 342° (NNW) 3,316 11.1 -36.8°
